Weather History for Jackson, MS

Change the Weather History Date:

Saturday, June 29, 2013

  Actual Average Record
Temperature  
Mean Temperature 81 °F 81 °F  
Max Temperature 93 °F 91 °F 105 °F (1988)
Min Temperature 68 °F 71 °F 58 °F (1974)
Degree Days  
Heating Degree Days 0 0  
Month to date heating degree days 0 0  
Since 1 June heating degree days 0 0  
Since 1 July heating degree days 2309 2391  
Cooling Degree Days 16 16  
Month to date cooling degree days 434 405  
Year to date cooling degree days 752 763  
Since 1 June cooling degree days 434 405  
Growing Degree Days 32 (Base 50)    
Moisture  
Dew Point 69 °F    
Average Humidity 67    
Maximum Humidity 93    
Minimum Humidity 40    
Precipitation  
Precipitation 0.00 in 0.16 in 1.53 in (1943)
Month to date precipitation 5.00 3.97  
Year to date precipitation 38.06 28.08  
Sea Level Pressure  
Sea Level Pressure 29.75 in    
Wind  
Wind Speed 4 mph (West)    
Max Wind Speed 13 mph    
Max Gust Speed 63 mph    
Visibility 10 miles    
Events      
T = Trace of Precipitation, MM = Missing Value Source: NWS Daily Summary

Daily Weather History Graph

Daily Weather History Graph

Search for Another Location

Airport:

Trip Planner

Search our weather history database for the weather conditions in past years. The results will help you decide how hot, cold, wet, or windy it might be!

Date:

Astronomy

Jun. 29, 2013 Rise Set
Actual Time 5:56 AM CDT 8:11 PM CDT
Civil Twilight 5:28 AM CDT 8:39 PM CDT
Nautical Twilight 4:53 AM CDT 9:14 PM CDT
Astronomical Twilight 4:15 AM CDT 9:51 PM CDT
Moon 12:03 AM CDT 12:42 PM CDT
Length of Visible Light 15h 11m
Length of Day
14h 14m
Waning Gibbous, 55% of the Moon is Illuminated
Jun 29
Waning Gibbous
Jun 29
Last Quarter
Jul 8
New
Jul 15
First Quarter
Jul 22
Full

Hourly Weather History & Observations

Time (CDT) Temp. Heat Index Dew Point Humidity Pressure Visibility Wind Dir Wind Speed Gust Speed Precip Events Conditions
12:54 AM 72.0 °F - 70.0 °F 93% 29.78 in 10.0 mi South 6.9 mph - N/A   Clear
1:54 AM 72.0 °F - 69.1 °F 91% 29.77 in 10.0 mi South 4.6 mph - N/A   Clear
2:49 AM 71.6 °F - 69.8 °F 94% 29.77 in 10.0 mi Calm Calm - N/A   Clear
2:54 AM 71.1 °F - 69.1 °F 93% 29.76 in 10.0 mi SSW 3.5 mph 63.3 mph N/A   Clear
3:54 AM 71.1 °F - 69.1 °F 93% 29.75 in 10.0 mi South 3.5 mph - N/A   Clear
4:54 AM 71.1 °F - 69.1 °F 93% 29.76 in 10.0 mi Calm Calm - N/A   Clear
5:54 AM 71.1 °F - 69.1 °F 93% 29.77 in 9.0 mi Calm Calm - 0.01 in   Clear
6:54 AM 72.0 °F - 70.0 °F 93% 29.78 in 10.0 mi Calm Calm - N/A   Clear
7:54 AM 73.9 °F - 71.1 °F 91% 29.78 in 10.0 mi Calm Calm - N/A   Scattered Clouds
8:54 AM 79.0 °F - 73.0 °F 82% 29.78 in 10.0 mi Calm Calm - N/A   Partly Cloudy
9:54 AM 81.0 °F 85.8 °F 73.0 °F 77% 29.78 in 10.0 mi Calm Calm - N/A   Scattered Clouds
10:54 AM 84.0 °F 91.2 °F 73.9 °F 72% 29.78 in 10.0 mi SW 6.9 mph - N/A   Mostly Cloudy
11:54 AM 87.1 °F 96.3 °F 75.0 °F 67% 29.77 in 10.0 mi WSW 6.9 mph - N/A   Scattered Clouds
12:54 PM 88.0 °F 95.6 °F 73.0 °F 61% 29.75 in 10.0 mi West 6.9 mph - N/A   Mostly Cloudy
1:54 PM 89.1 °F 95.0 °F 71.1 °F 55% 29.74 in 10.0 mi NW 6.9 mph - N/A   Scattered Clouds
2:54 PM 91.0 °F 95.6 °F 69.1 °F 48% 29.73 in 10.0 mi West 9.2 mph - N/A   Scattered Clouds
3:54 PM 90.0 °F 92.4 °F 66.0 °F 45% 29.71 in 10.0 mi NNW 11.5 mph 20.7 mph N/A   Scattered Clouds
4:54 PM 91.0 °F 92.6 °F 64.0 °F 41% 29.70 in 10.0 mi NNW 12.7 mph - N/A   Partly Cloudy
5:54 PM 89.1 °F 90.0 °F 63.0 °F 42% 29.70 in 10.0 mi NNW 9.2 mph - N/A   Partly Cloudy
6:54 PM 88.0 °F 87.9 °F 61.0 °F 40% 29.71 in 10.0 mi NNW 9.2 mph - N/A   Partly Cloudy
7:54 PM 84.0 °F 84.9 °F 63.0 °F 49% 29.72 in 10.0 mi NW 4.6 mph - 0.01 in   Clear
8:54 PM 77.0 °F - 66.9 °F 71% 29.72 in 10.0 mi Calm Calm - N/A   Clear
9:54 PM 73.9 °F - 66.9 °F 79% 29.74 in 10.0 mi Calm Calm - N/A   Clear
10:54 PM 71.1 °F - 66.9 °F 87% 29.75 in 10.0 mi Calm Calm - N/A   Clear
11:54 PM 70.0 °F - 64.9 °F 84% 29.75 in 10.0 mi SE 3.5 mph - N/A   Clear